Time,TemperatureF,DewpointF,PressureIn,WindDirection,WindDirectionDegrees,WindSpeedMPH,WindSpeedGustMPH,Humidity,HourlyPrecipIn,Conditions,Clouds,dailyrainin,SoftwareType,DateUTC
2013-07-12 00:01:00,71.7,71.1,29.88,WSW,248,0.0,0.0,98,0.00,,---,0.00,VWS V14.01,2013-07-12 05:01:00,
2013-07-12 00:06:00,71.7,71.1,29.88,WSW,248,0.0,0.0,98,0.00,,---,0.00,VWS V14.01,2013-07-12 05:06:00,
2013-07-12 00:12:00,71.7,71.1,29.88,WSW,248,0.0,0.0,98,0.00,,---,0.00,VWS V14.01,2013-07-12 05:12:00,
2013-07-12 00:17:00,71.5,70.9,29.88,SSW,202,0.0,0.0,98,0.00,,---,0.00,VWS V14.01,2013-07-12 05:17:00,
2013-07-12 00:22:00,71.5,70.9,29.88,SSW,202,0.0,0.0,98,0.00,,---,0.00,VWS V14.01,2013-07-12 05:22:00,
2013-07-12 00:27:00,71.5,70.9,29.88,SSW,202,0.0,0.0,98,0.00,,---,0.00,VWS V14.01,2013-07-12 05:27:00,
2013-07-12 00:32:00,71.5,70.9,29.88,SSW,202,0.0,0.0,98,0.00,,---,0.00,VWS V14.01,2013-07-12 05:32:00,
2013-07-12 00:37:00,71.5,70.9,29.88,West,270,0.0,0.0,98,0.00,,---,0.00,VWS V14.01,2013-07-12 05:37:00,
2013-07-12 00:42:00,71.3,70.8,29.88,WNW,292,0.0,0.0,98,0.00,,---,0.00,VWS V14.01,2013-07-12 05:42:00,
2013-07-12 00:47:00,71.3,70.8,29.88,WNW,292,0.0,0.0,98,0.00,,---,0.00,VWS V14.01,2013-07-12 05:47:00,
2013-07-12 00:52:00,71.3,70.8,29.88,WNW,292,0.0,0.0,98,0.00,,---,0.00,VWS V14.01,2013-07-12 05:52:00,
2013-07-12 00:57:00,71.3,70.8,29.88,WNW,292,0.0,0.0,98,0.00,,---,0.00,VWS V14.01,2013-07-12 05:57:00,
2013-07-12 01:02:00,71.3,70.8,29.88,NW,315,0.0,0.0,98,0.00,,---,0.00,VWS V14.01,2013-07-12 06:02:00,
2013-07-12 01:07:00,71.3,70.8,29.88,NW,315,0.0,0.0,98,0.00,,---,0.00,VWS V14.01,2013-07-12 06:07:00,
2013-07-12 01:12:00,71.2,70.6,29.88,NW,315,0.0,0.0,98,0.00,,---,0.00,VWS V14.01,2013-07-12 06:12:00,
2013-07-12 01:17:00,71.2,70.6,29.88,SSW,202,0.0,0.0,98,0.00,,---,0.00,VWS V14.01,2013-07-12 06:17:00,
2013-07-12 01:22:00,71.2,70.6,29.88,SSE,158,0.0,0.0,98,0.00,,---,0.00,VWS V14.01,2013-07-12 06:22:00,
2013-07-12 01:27:00,71.0,70.4,29.88,SE,135,0.0,0.0,98,0.00,,---,0.00,VWS V14.01,2013-07-12 06:27:00,
2013-07-12 01:32:00,71.0,70.4,29.88,SE,135,0.0,0.0,98,0.00,,---,0.00,VWS V14.01,2013-07-12 06:32:00,
2013-07-12 01:37:00,71.0,70.4,29.88,ESE,112,0.0,0.0,98,0.00,,---,0.00,VWS V14.01,2013-07-12 06:37:00,
2013-07-12 01:42:00,71.0,70.4,29.88,NNW,338,0.0,0.0,98,0.00,,---,0.00,VWS V14.01,2013-07-12 06:42:00,
2013-07-12 01:47:00,71.0,70.4,29.88,NNW,338,0.0,0.0,98,0.00,,---,0.00,VWS V14.01,2013-07-12 06:47:00,
2013-07-12 01:52:00,71.0,70.4,29.88,NNW,338,0.0,0.0,98,0.00,,---,0.00,VWS V14.01,2013-07-12 06:52:00,
2013-07-12 01:57:00,71.0,70.4,29.88,WSW,248,0.0,0.0,98,0.00,,---,0.00,VWS V14.01,2013-07-12 06:57:00,
2013-07-12 02:02:00,71.0,70.4,29.88,West,270,0.0,0.0,98,0.00,,---,0.00,VWS V14.01,2013-07-12 07:02:00,
2013-07-12 02:07:00,70.8,70.2,29.88,West,270,0.0,0.0,98,0.00,,---,0.00,VWS V14.01,2013-07-12 07:07:00,
2013-07-12 02:12:00,71.0,70.4,29.88,West,270,0.0,0.0,98,0.00,,---,0.00,VWS V14.01,2013-07-12 07:12:00,
2013-07-12 02:17:00,71.0,70.4,29.88,West,270,0.0,0.0,98,0.00,,---,0.00,VWS V14.01,2013-07-12 07:17:00,
2013-07-12 02:22:00,71.0,70.4,29.88,West,270,0.0,0.0,98,0.00,,---,0.00,VWS V14.01,2013-07-12 07:22:00,
2013-07-12 02:27:00,71.0,70.4,29.88,West,270,0.0,0.0,98,0.00,,---,0.00,VWS V14.01,2013-07-12 07:27:00,
2013-07-12 02:32:00,71.0,70.4,29.88,West,270,0.0,0.0,98,0.00,,---,0.00,VWS V14.01,2013-07-12 07:32:00,
2013-07-12 02:37:00,71.0,70.4,29.88,West,270,0.0,0.0,98,0.00,,---,0.00,VWS V14.01,2013-07-12 07:37:00,
2013-07-12 02:42:00,71.0,70.4,29.88,West,270,0.0,0.0,98,0.00,,---,0.00,VWS V14.01,2013-07-12 07:42:00,
2013-07-12 02:47:00,71.0,70.4,29.88,West,270,0.0,0.0,98,0.00,,---,0.00,VWS V14.01,2013-07-12 07:47:00,
2013-07-12 02:52:00,71.0,70.4,29.88,West,270,0.0,0.0,98,0.00,,---,0.00,VWS V14.01,2013-07-12 07:52:00,
2013-07-12 02:58:00,71.0,70.4,29.88,West,270,0.0,0.0,98,0.00,,---,0.00,VWS V14.01,2013-07-12 07:58:00,
2013-07-12 03:03:00,71.0,70.4,29.88,West,270,0.0,0.0,98,0.00,,---,0.00,VWS V14.01,2013-07-12 08:03:00,
2013-07-12 03:08:00,71.2,70.6,29.88,West,270,0.0,0.0,98,0.00,,---,0.00,VWS V14.01,2013-07-12 08:08:00,
2013-07-12 03:13:00,71.2,70.6,29.88,West,270,0.0,0.0,98,0.00,,---,0.00,VWS V14.01,2013-07-12 08:13:00,
2013-07-12 03:18:00,71.2,70.6,29.88,West,270,0.0,0.0,98,0.00,,---,0.00,VWS V14.01,2013-07-12 08:18:00,
2013-07-12 03:23:00,71.2,70.6,29.88,West,270,0.0,0.0,98,0.00,,---,0.00,VWS V14.01,2013-07-12 08:23:00,
2013-07-12 03:28:00,71.2,70.6,29.88,West,270,0.0,0.0,98,0.00,,---,0.00,VWS V14.01,2013-07-12 08:28:00,
2013-07-12 03:33:00,71.2,70.6,29.88,West,270,0.0,0.0,98,0.00,,---,0.00,VWS V14.01,2013-07-12 08:33:00,
2013-07-12 03:38:00,71.2,70.6,29.88,WSW,248,0.0,0.0,98,0.00,,---,0.00,VWS V14.01,2013-07-12 08:38:00,
2013-07-12 03:43:00,71.2,70.6,29.88,WSW,248,0.0,0.0,98,0.00,,---,0.00,VWS V14.01,2013-07-12 08:43:00,
2013-07-12 03:48:00,71.2,70.6,29.88,WSW,248,0.0,0.0,98,0.00,,---,0.00,VWS V14.01,2013-07-12 08:48:00,
2013-07-12 03:53:00,71.2,70.6,29.88,WSW,248,0.0,0.0,98,0.00,,---,0.00,VWS V14.01,2013-07-12 08:53:00,
2013-07-12 03:58:00,71.2,70.6,29.88,WSW,248,0.0,0.0,98,0.00,,---,0.00,VWS V14.01,2013-07-12 08:58:00,
2013-07-12 04:03:00,71.2,70.6,29.88,WSW,248,0.0,0.0,98,0.00,,---,0.00,VWS V14.01,2013-07-12 09:03:00,
2013-07-12 04:08:00,71.2,70.6,29.88,WSW,248,0.0,0.0,98,0.00,,---,0.00,VWS V14.01,2013-07-12 09:08:00,
2013-07-12 04:13:00,71.0,70.4,29.88,West,270,0.0,0.0,98,0.00,,---,0.00,VWS V14.01,2013-07-12 09:13:00,
2013-07-12 04:18:00,71.0,70.4,29.88,West,270,0.0,0.0,98,0.00,,---,0.00,VWS V14.01,2013-07-12 09:18:00,
2013-07-12 04:23:00,71.0,70.4,29.88,West,270,0.0,0.0,98,0.00,,---,0.00,VWS V14.01,2013-07-12 09:23:00,
2013-07-12 04:28:00,71.0,70.4,29.88,West,270,0.0,0.0,98,0.00,,---,0.00,VWS V14.01,2013-07-12 09:28:00,
2013-07-12 04:33:00,71.0,70.4,29.88,WSW,248,0.0,0.0,98,0.00,,---,0.00,VWS V14.01,2013-07-12 09:33:00,
2013-07-12 04:38:00,71.0,70.4,29.88,WSW,248,0.0,0.0,98,0.00,,---,0.00,VWS V14.01,2013-07-12 09:38:00,
2013-07-12 04:43:00,71.0,70.4,29.88,WSW,248,0.0,0.0,98,0.00,,---,0.00,VWS V14.01,2013-07-12 09:43:00,
2013-07-12 04:48:00,71.0,70.4,29.88,WSW,248,0.0,0.0,98,0.00,,---,0.00,VWS V14.01,2013-07-12 09:48:00,
2013-07-12 04:53:00,71.0,70.4,29.88,WSW,248,0.0,0.0,98,0.00,,---,0.00,VWS V14.01,2013-07-12 09:53:00,
2013-07-12 04:58:00,71.0,70.4,29.88,West,270,0.0,0.0,98,0.00,,---,0.00,VWS V14.01,2013-07-12 09:58:00,
2013-07-12 05:03:00,70.8,70.2,29.88,NW,315,0.0,0.0,98,0.00,,---,0.00,VWS V14.01,2013-07-12 10:03:00,
2013-07-12 05:08:00,70.8,70.2,29.88,NW,315,0.0,0.0,98,0.00,,---,0.00,VWS V14.01,2013-07-12 10:08:00,
2013-07-12 05:13:00,71.0,70.4,29.88,NW,315,0.0,0.0,98,0.00,,---,0.00,VWS V14.01,2013-07-12 10:13:00,
2013-07-12 05:18:00,71.0,70.4,29.88,WNW,292,0.0,0.0,98,0.00,,---,0.00,VWS V14.01,2013-07-12 10:18:00,
2013-07-12 05:23:00,71.0,70.4,29.88,WNW,292,0.0,0.0,98,0.00,,---,0.00,VWS V14.01,2013-07-12 10:23:00,
2013-07-12 05:28:00,70.8,70.2,29.91,NNW,338,0.0,0.0,98,0.00,,---,0.00,VWS V14.01,2013-07-12 10:28:00,
2013-07-12 05:33:00,70.8,70.2,29.91,WNW,292,0.0,0.0,98,0.00,,---,0.00,VWS V14.01,2013-07-12 10:33:00,
2013-07-12 05:38:00,70.6,70.0,29.91,WNW,292,0.0,0.0,98,0.00,,---,0.00,VWS V14.01,2013-07-12 10:38:00,
2013-07-12 05:43:00,70.6,70.0,29.91,WNW,292,0.0,0.0,98,0.00,,---,0.00,VWS V14.01,2013-07-12 10:43:00,
2013-07-12 05:48:00,70.8,70.2,29.91,WNW,292,0.0,0.0,98,0.00,,---,0.00,VWS V14.01,2013-07-12 10:48:00,
2013-07-12 05:54:00,70.8,70.2,29.91,WNW,292,0.0,0.0,98,0.00,,---,0.00,VWS V14.01,2013-07-12 10:54:00,
2013-07-12 05:59:00,70.8,70.2,29.91,WNW,292,0.0,0.0,98,0.00,,---,0.00,VWS V14.01,2013-07-12 10:59:00,
2013-07-12 06:04:00,70.8,70.2,29.91,WNW,292,0.0,0.0,98,0.00,,---,0.00,VWS V14.01,2013-07-12 11:04:00,
2013-07-12 06:09:00,71.0,70.4,29.91,WNW,292,0.0,0.0,98,0.00,,---,0.00,VWS V14.01,2013-07-12 11:09:00,
2013-07-12 06:14:00,71.0,70.4,29.91,WNW,292,0.0,0.0,98,0.00,,---,0.00,VWS V14.01,2013-07-12 11:14:00,
2013-07-12 06:19:00,71.0,70.4,29.91,WNW,292,0.0,0.0,98,0.00,,---,0.00,VWS V14.01,2013-07-12 11:19:00,
2013-07-12 06:24:00,71.0,70.4,29.91,NW,315,0.0,0.0,98,0.00,,---,0.00,VWS V14.01,2013-07-12 11:24:00,
2013-07-12 06:29:00,71.0,70.4,29.91,NW,315,0.0,0.0,98,0.00,,---,0.00,VWS V14.01,2013-07-12 11:29:00,
2013-07-12 06:34:00,71.2,70.6,29.91,NW,315,0.0,0.0,98,0.00,,---,0.00,VWS V14.01,2013-07-12 11:34:00,
2013-07-12 06:39:00,71.2,70.6,29.91,NW,315,0.0,0.0,98,0.00,,---,0.00,VWS V14.01,2013-07-12 11:39:00,
2013-07-12 06:44:00,71.2,70.6,29.91,NW,315,0.0,0.0,98,0.00,,---,0.00,VWS V14.01,2013-07-12 11:44:00,
2013-07-12 06:49:00,71.2,70.6,29.91,NW,315,0.0,0.0,98,0.00,,---,0.00,VWS V14.01,2013-07-12 11:49:00,
2013-07-12 06:54:00,71.2,70.6,29.91,NNW,338,0.0,0.0,98,0.00,,---,0.00,VWS V14.01,2013-07-12 11:54:00,
2013-07-12 06:59:00,71.2,70.6,29.91,WNW,292,0.0,0.0,98,0.00,,---,0.00,VWS V14.01,2013-07-12 11:59:00,
2013-07-12 07:04:00,71.2,70.6,29.91,WNW,292,0.0,0.0,98,0.00,,---,0.00,VWS V14.01,2013-07-12 12:04:00,
2013-07-12 07:09:00,71.2,70.6,29.91,WNW,292,0.0,0.0,98,0.00,,---,0.00,VWS V14.01,2013-07-12 12:09:00,
2013-07-12 07:14:00,71.2,70.6,29.91,NNW,338,0.0,0.0,98,0.00,,---,0.00,VWS V14.01,2013-07-12 12:14:00,
2013-07-12 07:19:00,71.3,70.8,29.91,WNW,292,0.0,0.0,98,0.00,,---,0.00,VWS V14.01,2013-07-12 12:19:00,
2013-07-12 07:24:00,71.3,70.8,29.91,NNW,338,0.0,0.0,98,0.00,,---,0.00,VWS V14.01,2013-07-12 12:24:00,
2013-07-12 07:29:00,71.3,70.8,29.91,NW,315,0.0,0.0,98,0.00,,---,0.00,VWS V14.01,2013-07-12 12:29:00,
2013-07-12 07:34:00,71.5,70.9,29.91,NW,315,0.0,0.0,98,0.00,,---,0.00,VWS V14.01,2013-07-12 12:34:00,
2013-07-12 07:39:00,71.5,70.9,29.91,NNW,338,0.0,0.0,98,0.00,,---,0.00,VWS V14.01,2013-07-12 12:39:00,
2013-07-12 07:44:00,71.5,70.9,29.91,WNW,292,0.0,0.0,98,0.00,,---,0.00,VWS V14.01,2013-07-12 12:44:00,
2013-07-12 07:49:00,71.5,70.9,29.91,WNW,292,0.0,0.0,98,0.00,,---,0.00,VWS V14.01,2013-07-12 12:49:00,
2013-07-12 07:54:00,71.7,71.1,29.91,WNW,292,0.0,0.0,98,0.00,,---,0.00,VWS V14.01,2013-07-12 12:54:00,
2013-07-12 08:00:00,71.7,71.1,29.91,WNW,292,0.0,0.0,98,0.00,,---,0.00,VWS V14.01,2013-07-12 13:00:00,
2013-07-12 08:05:00,71.7,71.1,29.91,NW,315,0.0,0.0,98,0.00,,---,0.00,VWS V14.01,2013-07-12 13:05:00,
2013-07-12 08:10:00,71.9,71.3,29.91,WNW,292,0.0,0.0,98,0.00,,---,0.00,VWS V14.01,2013-07-12 13:10:00,
2013-07-12 08:15:00,72.1,71.5,29.91,WNW,292,0.0,0.0,98,0.00,,---,0.00,VWS V14.01,2013-07-12 13:15:00,
2013-07-12 08:20:00,72.1,71.5,29.91,WNW,292,0.0,0.0,98,0.00,,---,0.00,VWS V14.01,2013-07-12 13:20:00,
2013-07-12 08:25:00,72.2,71.7,29.91,NW,315,0.0,0.0,98,0.00,,---,0.00,VWS V14.01,2013-07-12 13:25:00,
2013-07-12 08:30:00,72.4,71.8,29.94,NNW,338,0.0,0.0,98,0.00,,---,0.00,VWS V14.01,2013-07-12 13:30:00,
2013-07-12 08:35:00,72.4,71.8,29.94,WNW,292,0.0,0.0,98,0.00,,---,0.00,VWS V14.01,2013-07-12 13:35:00,
2013-07-12 08:40:00,72.6,72.0,29.94,NNW,338,0.0,0.0,98,0.00,,---,0.00,VWS V14.01,2013-07-12 13:40:00,
2013-07-12 08:45:00,72.8,72.2,29.94,NW,315,0.0,1.1,98,0.00,,---,0.00,VWS V14.01,2013-07-12 13:45:00,
2013-07-12 08:50:00,73.0,72.4,29.94,WNW,292,0.0,0.0,98,0.00,,---,0.00,VWS V14.01,2013-07-12 13:50:00,
2013-07-12 08:55:00,73.1,72.6,29.94,WNW,292,0.0,0.0,98,0.00,,---,0.00,VWS V14.01,2013-07-12 13:55:00,
2013-07-12 09:00:00,73.3,72.7,29.91,WNW,292,0.0,0.0,98,0.00,,---,0.00,VWS V14.01,2013-07-12 14:00:00,
2013-07-12 09:05:00,73.5,72.9,29.91,WNW,292,0.0,0.0,98,0.00,,---,0.00,VWS V14.01,2013-07-12 14:05:00,
2013-07-12 09:10:00,73.5,72.9,29.91,NNW,338,0.0,0.0,98,0.00,,---,0.00,VWS V14.01,2013-07-12 14:10:00,
2013-07-12 09:15:00,73.7,73.1,29.91,NNW,338,0.0,0.0,98,0.00,,---,0.00,VWS V14.01,2013-07-12 14:15:00,
2013-07-12 09:20:00,73.9,73.3,29.91,NNW,338,0.0,0.0,98,0.00,,---,0.00,VWS V14.01,2013-07-12 14:20:00,
2013-07-12 09:25:00,74.0,73.4,29.91,NNW,338,0.0,0.0,98,0.00,,---,0.00,VWS V14.01,2013-07-12 14:25:00,
2013-07-12 09:30:00,74.4,73.5,29.91,NNW,338,0.0,0.0,97,0.00,,---,0.00,VWS V14.01,2013-07-12 14:30:00,
2013-07-12 09:35:00,74.4,73.2,29.91,WNW,292,0.0,0.0,96,0.00,,---,0.00,VWS V14.01,2013-07-12 14:35:00,
2013-07-12 09:40:00,74.8,73.6,29.91,WNW,292,0.0,0.0,96,0.00,,---,0.00,VWS V14.01,2013-07-12 14:40:00,
2013-07-12 09:45:00,74.8,73.2,29.91,NW,315,0.0,1.3,95,0.00,,---,0.00,VWS V14.01,2013-07-12 14:45:00,
2013-07-12 09:50:00,74.9,73.1,29.91,North,0,0.0,0.0,94,0.00,,---,0.00,VWS V14.01,2013-07-12 14:50:00,
2013-07-12 09:55:00,75.1,73.0,29.91,NNW,338,1.6,1.6,93,0.00,,---,0.00,VWS V14.01,2013-07-12 14:55:00,
2013-07-12 10:00:00,75.1,73.0,29.91,NNW,338,0.0,0.0,93,0.00,,---,0.00,VWS V14.01,2013-07-12 15:00:00,
2013-07-12 10:05:00,75.3,73.1,29.91,NW,315,0.0,3.8,93,0.00,,---,0.00,VWS V14.01,2013-07-12 15:05:00,
2013-07-12 10:10:00,75.3,72.8,29.91,NNW,338,1.6,1.6,92,0.00,,---,0.00,VWS V14.01,2013-07-12 15:10:00,
2013-07-12 10:15:00,75.5,73.0,29.91,WNW,292,0.0,0.9,92,0.00,,---,0.00,VWS V14.01,2013-07-12 15:15:00,
2013-07-12 10:20:00,75.5,73.0,29.91,WNW,292,0.0,1.1,92,0.00,,---,0.00,VWS V14.01,2013-07-12 15:20:00,
2013-07-12 10:25:00,75.7,73.2,29.91,NW,315,0.0,0.0,92,0.00,,---,0.00,VWS V14.01,2013-07-12 15:25:00,
2013-07-12 10:30:00,76.0,73.5,29.91,NW,315,2.5,2.5,92,0.00,,---,0.00,VWS V14.01,2013-07-12 15:30:00,
2013-07-12 10:35:00,76.2,73.4,29.91,NW,315,1.1,1.1,91,0.00,,---,0.00,VWS V14.01,2013-07-12 15:35:00,
2013-07-12 10:40:00,76.4,73.6,29.91,NW,315,0.0,0.0,91,0.00,,---,0.00,VWS V14.01,2013-07-12 15:40:00,
2013-07-12 10:45:00,76.6,73.7,29.91,NW,315,0.0,0.0,91,0.00,,---,0.00,VWS V14.01,2013-07-12 15:45:00,
2013-07-12 10:50:00,77.1,73.9,29.91,NNW,338,0.0,0.0,90,0.00,,---,0.00,VWS V14.01,2013-07-12 15:50:00,
2013-07-12 10:55:00,77.5,74.0,29.91,NNW,338,0.9,1.6,89,0.00,,---,0.00,VWS V14.01,2013-07-12 15:55:00,
2013-07-12 11:00:00,77.6,74.1,29.91,North,0,0.0,2.0,89,0.00,,---,0.00,VWS V14.01,2013-07-12 16:00:00,
2013-07-12 11:05:00,78.0,74.2,29.91,NW,315,0.9,0.9,88,0.00,,---,0.00,VWS V14.01,2013-07-12 16:05:00,
2013-07-12 11:10:00,78.2,74.3,29.91,NE,45,0.0,0.0,88,0.00,,---,0.00,VWS V14.01,2013-07-12 16:10:00,
2013-07-12 11:15:00,78.5,74.7,29.91,NW,315,3.8,3.8,88,0.00,,---,0.00,VWS V14.01,2013-07-12 16:15:00,
2013-07-12 11:20:00,79.1,75.2,29.91,NNW,338,0.0,0.0,88,0.00,,---,0.00,VWS V14.01,2013-07-12 16:20:00,
2013-07-12 11:25:00,79.3,74.4,29.91,WNW,292,2.0,2.0,85,0.00,,---,0.00,VWS V14.01,2013-07-12 16:25:00,
2013-07-12 11:30:00,80.0,75.1,29.91,NW,315,3.6,3.6,85,0.00,,---,0.00,VWS V14.01,2013-07-12 16:30:00,
2013-07-12 11:35:00,80.3,74.0,29.91,NW,315,3.1,3.1,81,0.00,,---,0.00,VWS V14.01,2013-07-12 16:35:00,
2013-07-12 11:40:00,80.7,75.1,29.91,NW,315,3.1,3.1,83,0.00,,---,0.00,VWS V14.01,2013-07-12 16:40:00,
2013-07-12 11:45:00,81.1,73.9,29.91,WNW,292,3.4,3.6,79,0.00,,---,0.00,VWS V14.01,2013-07-12 16:45:00,
2013-07-12 11:51:00,81.6,74.5,29.91,WNW,292,1.1,2.7,79,0.00,,---,0.00,VWS V14.01,2013-07-12 16:51:00,
2013-07-12 11:56:00,81.8,74.2,29.91,West,270,0.0,0.0,78,0.00,,---,0.00,VWS V14.01,2013-07-12 16:56:00,
2013-07-12 12:01:00,82.0,74.8,29.91,NNW,338,0.0,0.0,79,0.00,,---,0.00,VWS V14.01,2013-07-12 17:01:00,
2013-07-12 12:06:00,82.3,74.4,29.91,ENE,68,1.3,1.3,77,0.00,,---,0.00,VWS V14.01,2013-07-12 17:06:00,
2013-07-12 12:11:00,82.3,74.8,29.91,NNW,338,1.3,2.7,78,0.00,,---,0.00,VWS V14.01,2013-07-12 17:11:00,
2013-07-12 12:16:00,82.1,73.8,29.91,WNW,292,3.6,3.6,76,0.00,,---,0.00,VWS V14.01,2013-07-12 17:16:00,
2013-07-12 12:21:00,82.0,73.7,29.91,WSW,248,0.0,0.0,76,0.00,,---,0.00,VWS V14.01,2013-07-12 17:21:00,
2013-07-12 12:26:00,82.9,72.9,29.91,North,0,1.6,3.8,72,0.00,,---,0.00,VWS V14.01,2013-07-12 17:26:00,
2013-07-12 12:31:00,83.6,73.2,29.91,NNE,22,3.6,3.6,71,0.00,,---,0.00,VWS V14.01,2013-07-12 17:31:00,
2013-07-12 12:37:00,84.1,73.3,29.91,WNW,292,3.1,4.0,70,0.00,,---,0.00,VWS V14.01,2013-07-12 17:37:00,
2013-07-12 12:42:00,83.6,71.5,29.91,WNW,292,2.0,2.7,67,0.00,,---,0.00,VWS V14.01,2013-07-12 17:42:00,
2013-07-12 12:47:00,84.1,71.1,29.88,NNW,338,4.0,4.0,65,0.00,,---,0.00,VWS V14.01,2013-07-12 17:47:00,
2013-07-12 12:52:00,84.7,72.5,29.88,NW,315,3.4,6.0,67,0.00,,---,0.00,VWS V14.01,2013-07-12 17:52:00,
2013-07-12 12:57:00,84.8,71.3,29.88,NNW,338,2.0,5.4,64,0.00,,---,0.00,VWS V14.01,2013-07-12 17:57:00,
2013-07-12 13:02:00,85.0,72.8,29.88,NNE,22,0.0,0.0,67,0.00,,---,0.00,VWS V14.01,2013-07-12 18:02:00,
2013-07-12 13:07:00,85.2,72.1,29.88,NNW,338,1.1,2.0,65,0.00,,---,0.00,VWS V14.01,2013-07-12 18:07:00,
2013-07-12 13:13:00,85.4,70.9,29.88,North,0,0.0,0.9,62,0.00,,---,0.00,VWS V14.01,2013-07-12 18:13:00,
2013-07-12 13:18:00,85.7,71.7,29.88,NNW,338,0.0,1.1,63,0.00,,---,0.00,VWS V14.01,2013-07-12 18:18:00,
2013-07-12 13:23:00,86.1,70.6,29.88,WNW,292,0.0,0.0,60,0.00,,---,0.00,VWS V14.01,2013-07-12 18:23:00,
2013-07-12 13:28:00,86.5,72.4,29.88,NNW,338,2.7,2.7,63,0.00,,---,0.00,VWS V14.01,2013-07-12 18:28:00,
2013-07-12 13:33:00,86.5,69.4,29.88,NNW,338,2.5,3.8,57,0.00,,---,0.00,VWS V14.01,2013-07-12 18:33:00,
2013-07-12 13:38:00,86.8,71.3,29.88,North,0,0.0,0.0,60,0.00,,---,0.00,VWS V14.01,2013-07-12 18:38:00,
2013-07-12 13:43:00,86.5,71.4,29.88,NE,45,2.5,2.5,61,0.00,,---,0.00,VWS V14.01,2013-07-12 18:43:00,
2013-07-12 13:48:00,86.5,69.4,29.88,NNW,338,1.3,6.5,57,0.00,,---,0.00,VWS V14.01,2013-07-12 18:48:00,
2013-07-12 13:53:00,86.3,70.3,29.88,NW,315,0.9,0.9,59,0.00,,---,0.00,VWS V14.01,2013-07-12 18:53:00,
2013-07-12 13:58:00,86.5,70.4,29.88,WNW,292,2.9,2.9,59,0.00,,---,0.00,VWS V14.01,2013-07-12 18:58:00,
2013-07-12 14:03:00,86.6,69.6,29.88,WNW,292,5.8,5.8,57,0.00,,---,0.00,VWS V14.01,2013-07-12 19:03:00,
2013-07-12 14:08:00,86.8,69.2,29.88,NE,45,0.0,1.6,56,0.00,,---,0.00,VWS V14.01,2013-07-12 19:08:00,
2013-07-12 14:14:00,87.2,70.1,29.88,NNE,22,0.0,0.0,57,0.00,,---,0.00,VWS V14.01,2013-07-12 19:14:00,
2013-07-12 14:19:00,87.2,68.5,29.88,NW,315,2.9,2.9,54,0.00,,---,0.00,VWS V14.01,2013-07-12 19:19:00,
2013-07-12 14:24:00,87.4,69.2,29.88,NW,315,0.0,2.5,55,0.00,,---,0.00,VWS V14.01,2013-07-12 19:24:00,
2013-07-12 14:29:00,87.4,68.2,29.88,WNW,292,2.7,2.9,53,0.00,,---,0.00,VWS V14.01,2013-07-12 19:29:00,
2013-07-12 14:34:00,87.7,67.9,29.88,WNW,292,0.9,0.9,52,0.00,,---,0.00,VWS V14.01,2013-07-12 19:34:00,
2013-07-12 14:39:00,88.1,69.4,29.88,West,270,1.6,1.6,54,0.00,,---,0.00,VWS V14.01,2013-07-12 19:39:00,
2013-07-12 14:44:00,88.1,69.9,29.88,ENE,68,0.9,1.1,55,0.00,,---,0.00,VWS V14.01,2013-07-12 19:44:00,
2013-07-12 14:49:00,87.9,70.3,29.88,NNE,22,0.0,0.0,56,0.00,,---,0.00,VWS V14.01,2013-07-12 19:49:00,
2013-07-12 14:54:00,87.2,68.0,29.88,WNW,292,3.1,3.6,53,0.00,,---,0.00,VWS V14.01,2013-07-12 19:54:00,
2013-07-12 14:59:00,87.2,66.9,29.88,NE,45,0.0,0.0,51,0.00,,---,0.00,VWS V14.01,2013-07-12 19:59:00,
2013-07-12 15:04:00,87.2,66.9,29.88,NE,45,1.1,1.6,51,0.00,,---,0.00,VWS V14.01,2013-07-12 20:04:00,
2013-07-12 15:09:00,87.2,66.9,29.88,NW,315,2.0,3.6,51,0.00,,---,0.00,VWS V14.01,2013-07-12 20:09:00,
2013-07-12 15:14:00,87.2,66.9,29.88,NNW,338,1.1,4.3,51,0.00,,---,0.00,VWS V14.01,2013-07-12 20:14:00,
2013-07-12 15:20:00,87.2,66.9,29.88,WNW,292,2.0,2.0,51,0.00,,---,0.00,VWS V14.01,2013-07-12 20:20:00,
2013-07-12 15:25:00,87.2,66.9,29.88,NW,315,1.3,3.1,51,0.00,,---,0.00,VWS V14.01,2013-07-12 20:25:00,
2013-07-12 15:30:00,87.2,66.9,29.88,NNW,338,2.0,2.0,51,0.00,,---,0.00,VWS V14.01,2013-07-12 20:30:00,
2013-07-12 15:35:00,87.2,66.9,29.88,ENE,68,0.0,0.0,51,0.00,,---,0.00,VWS V14.01,2013-07-12 20:35:00,
2013-07-12 15:40:00,87.2,66.9,29.88,ENE,68,0.0,0.0,51,0.00,,---,0.00,VWS V14.01,2013-07-12 20:40:00,
2013-07-12 15:45:00,87.4,67.6,29.88,NNE,22,0.0,0.0,52,0.00,,---,0.00,VWS V14.01,2013-07-12 20:45:00,
2013-07-12 15:50:00,87.5,66.6,29.88,WNW,292,1.1,1.1,50,0.00,,---,0.00,VWS V14.01,2013-07-12 20:50:00,
2013-07-12 15:55:00,87.5,67.2,29.88,NW,315,0.0,0.9,51,0.00,,---,0.00,VWS V14.01,2013-07-12 20:55:00,
2013-07-12 16:00:00,87.5,68.3,29.88,ENE,68,0.0,0.0,53,0.00,,---,0.00,VWS V14.01,2013-07-12 21:00:00,
2013-07-12 16:05:00,87.7,67.4,29.88,NW,315,0.0,0.0,51,0.00,,---,0.00,VWS V14.01,2013-07-12 21:05:00,
2013-07-12 16:10:00,87.9,66.4,29.88,WNW,292,2.7,2.9,49,0.00,,---,0.00,VWS V14.01,2013-07-12 21:10:00,
2013-07-12 16:15:00,87.9,66.4,29.85,WNW,292,3.6,3.6,49,0.00,,---,0.00,VWS V14.01,2013-07-12 21:15:00,
2013-07-12 16:21:00,87.9,65.8,29.85,WNW,292,3.1,3.1,48,0.00,,---,0.00,VWS V14.01,2013-07-12 21:21:00,
2013-07-12 16:26:00,87.7,66.8,29.85,NW,315,1.1,1.1,50,0.00,,---,0.00,VWS V14.01,2013-07-12 21:26:00,
2013-07-12 16:31:00,87.5,66.6,29.88,WNW,292,2.9,3.1,50,0.00,,---,0.00,VWS V14.01,2013-07-12 21:31:00,
2013-07-12 16:36:00,87.5,66.6,29.88,WNW,292,0.0,0.0,50,0.00,,---,0.00,VWS V14.01,2013-07-12 21:36:00,
2013-07-12 16:41:00,87.5,67.8,29.88,NW,315,0.0,0.0,52,0.00,,---,0.00,VWS V14.01,2013-07-12 21:41:00,
2013-07-12 16:46:00,87.5,66.6,29.85,West,270,0.0,0.0,50,0.00,,---,0.00,VWS V14.01,2013-07-12 21:46:00,
2013-07-12 16:52:00,87.7,66.8,29.85,North,0,0.0,0.0,50,0.00,,---,0.00,VWS V14.01,2013-07-12 21:52:00,
2013-07-12 16:57:00,87.4,67.6,29.85,NE,45,0.0,0.0,52,0.00,,---,0.00,VWS V14.01,2013-07-12 21:57:00,
2013-07-12 17:02:00,87.0,68.4,29.85,NE,45,0.0,0.0,54,0.00,,---,0.00,VWS V14.01,2013-07-12 22:02:00,
2013-07-12 17:07:00,86.6,69.1,29.85,NE,45,0.0,0.0,56,0.00,,---,0.00,VWS V14.01,2013-07-12 22:07:00,
2013-07-12 17:13:00,86.5,67.3,29.85,WNW,292,5.4,5.4,53,0.00,,---,0.00,VWS V14.01,2013-07-12 22:13:00,
2013-07-12 17:18:00,86.8,66.0,29.85,North,0,0.0,0.0,50,0.00,,---,0.00,VWS V14.01,2013-07-12 22:18:00,
2013-07-12 17:23:00,86.8,66.5,29.85,NW,315,0.0,0.0,51,0.00,,---,0.00,VWS V14.01,2013-07-12 22:23:00,
2013-07-12 17:28:00,86.6,66.9,29.85,North,0,0.0,0.0,52,0.00,,---,0.00,VWS V14.01,2013-07-12 22:28:00,
2013-07-12 17:33:00,86.3,68.8,29.85,WNW,292,0.0,0.0,56,0.00,,---,0.00,VWS V14.01,2013-07-12 22:33:00,
2013-07-12 17:38:00,85.7,69.3,29.85,WNW,292,1.6,3.4,58,0.00,,---,0.00,VWS V14.01,2013-07-12 22:38:00,
2013-07-12 17:43:00,85.7,67.7,29.85,NNW,338,0.0,0.0,55,0.00,,---,0.00,VWS V14.01,2013-07-12 22:43:00,
2013-07-12 17:48:00,85.9,67.9,29.85,NE,45,0.0,0.0,55,0.00,,---,0.00,VWS V14.01,2013-07-12 22:48:00,
2013-07-12 17:53:00,85.7,68.2,29.85,NNE,22,0.0,0.0,56,0.00,,---,0.00,VWS V14.01,2013-07-12 22:53:00,
2013-07-12 17:58:00,85.2,69.3,29.85,NNE,22,0.0,0.0,59,0.00,,---,0.00,VWS V14.01,2013-07-12 22:58:00,
2013-07-12 18:03:00,84.7,69.7,29.85,NE,45,0.0,0.0,61,0.00,,---,0.00,VWS V14.01,2013-07-12 23:03:00,
2013-07-12 18:08:00,84.3,69.9,29.85,North,0,0.0,0.0,62,0.00,,---,0.00,VWS V14.01,2013-07-12 23:08:00,
2013-07-12 18:13:00,84.3,69.9,29.85,North,0,0.0,0.0,62,0.00,,---,0.00,VWS V14.01,2013-07-12 23:13:00,
2013-07-12 18:18:00,84.1,70.2,29.85,ESE,112,0.0,0.0,63,0.00,,---,0.00,VWS V14.01,2013-07-12 23:18:00,
2013-07-12 18:23:00,83.6,70.1,29.85,WNW,292,0.0,0.0,64,0.00,,---,0.00,VWS V14.01,2013-07-12 23:23:00,
2013-07-12 18:29:00,83.2,70.2,29.85,NNW,338,0.0,0.0,65,0.00,,---,0.00,VWS V14.01,2013-07-12 23:29:00,
2013-07-12 18:34:00,83.2,70.7,29.85,North,0,0.0,0.0,66,0.00,,---,0.00,VWS V14.01,2013-07-12 23:34:00,
2013-07-12 18:39:00,82.7,70.2,29.85,North,0,0.0,0.0,66,0.00,,---,0.00,VWS V14.01,2013-07-12 23:39:00,
2013-07-12 18:45:00,82.3,69.8,29.85,North,0,0.0,0.0,66,0.00,,---,0.00,VWS V14.01,2013-07-12 23:45:00,
2013-07-12 18:50:00,82.0,69.5,29.85,North,0,0.0,0.0,66,0.00,,---,0.00,VWS V14.01,2013-07-12 23:50:00,
2013-07-12 18:55:00,81.8,70.2,29.85,North,0,0.0,0.0,68,0.00,,---,0.00,VWS V14.01,2013-07-12 23:55:00,
2013-07-12 19:00:00,81.6,70.0,29.88,NE,45,0.0,0.0,68,0.00,,---,0.00,VWS V14.01,2013-07-13 00:00:00,
2013-07-12 19:05:00,81.2,70.1,29.88,NE,45,0.0,0.0,69,0.00,,---,0.00,VWS V14.01,2013-07-13 00:05:00,
2013-07-12 19:10:00,81.1,70.8,29.88,NE,45,0.0,0.0,71,0.00,,---,0.00,VWS V14.01,2013-07-13 00:10:00,
2013-07-12 19:15:00,80.7,70.8,29.85,NE,45,0.0,0.0,72,0.00,,---,0.00,VWS V14.01,2013-07-13 00:15:00,
2013-07-12 19:20:00,80.5,70.7,29.85,NE,45,0.0,0.0,72,0.00,,---,0.00,VWS V14.01,2013-07-13 00:20:00,
2013-07-12 19:25:00,80.2,70.7,29.85,NE,45,0.0,0.0,73,0.00,,---,0.00,VWS V14.01,2013-07-13 00:25:00,
2013-07-12 19:30:00,80.0,70.6,29.88,NE,45,0.0,0.0,73,0.00,,---,0.00,VWS V14.01,2013-07-13 00:30:00,
2013-07-12 19:35:00,79.8,70.8,29.88,NE,45,0.0,0.0,74,0.00,,---,0.00,VWS V14.01,2013-07-13 00:35:00,
2013-07-12 19:40:00,79.4,70.8,29.88,NE,45,0.0,0.0,75,0.00,,---,0.00,VWS V14.01,2013-07-13 00:40:00,
2013-07-12 19:45:00,79.3,71.1,29.88,NNE,22,0.0,0.0,76,0.00,,---,0.00,VWS V14.01,2013-07-13 00:45:00,
2013-07-12 19:50:00,79.1,71.3,29.88,NNE,22,0.0,0.0,77,0.00,,---,0.00,VWS V14.01,2013-07-13 00:50:00,
2013-07-12 19:56:00,78.7,71.3,29.88,NNE,22,0.0,0.0,78,0.00,,---,0.00,VWS V14.01,2013-07-13 00:56:00,
2013-07-12 20:01:00,78.5,71.5,29.88,NNE,22,0.0,0.0,79,0.00,,---,0.00,VWS V14.01,2013-07-13 01:01:00,
2013-07-12 20:06:00,78.4,71.3,29.88,NNE,22,0.0,0.0,79,0.00,,---,0.00,VWS V14.01,2013-07-13 01:06:00,
2013-07-12 20:11:00,78.0,71.3,29.88,NNE,22,0.0,0.0,80,0.00,,---,0.00,VWS V14.01,2013-07-13 01:11:00,
2013-07-12 20:16:00,77.8,71.2,29.88,NNE,22,0.0,0.0,80,0.00,,---,0.00,VWS V14.01,2013-07-13 01:16:00,
2013-07-12 20:21:00,77.6,71.0,29.88,NNE,22,0.0,0.0,80,0.00,,---,0.00,VWS V14.01,2013-07-13 01:21:00,
2013-07-12 20:26:00,77.3,71.0,29.88,NNE,22,0.0,0.0,81,0.00,,---,0.00,VWS V14.01,2013-07-13 01:26:00,
2013-07-12 20:31:00,76.9,71.0,29.88,NNE,22,0.0,0.0,82,0.00,,---,0.00,VWS V14.01,2013-07-13 01:31:00,
2013-07-12 20:36:00,76.7,71.2,29.88,NNE,22,0.0,0.0,83,0.00,,---,0.00,VWS V14.01,2013-07-13 01:36:00,
2013-07-12 20:42:00,76.6,71.4,29.88,North,0,0.0,0.0,84,0.00,,---,0.00,VWS V14.01,2013-07-13 01:42:00,
2013-07-12 20:47:00,76.4,71.5,29.88,North,0,0.0,0.0,85,0.00,,---,0.00,VWS V14.01,2013-07-13 01:47:00,
2013-07-12 20:52:00,76.2,71.4,29.88,North,0,0.0,0.0,85,0.00,,---,0.00,VWS V14.01,2013-07-13 01:52:00,
2013-07-12 20:57:00,76.0,71.5,29.88,North,0,0.0,0.0,86,0.00,,---,0.00,VWS V14.01,2013-07-13 01:57:00,
2013-07-12 21:02:00,75.8,71.4,29.88,North,0,0.0,0.0,86,0.00,,---,0.00,VWS V14.01,2013-07-13 02:02:00,
2013-07-12 21:07:00,75.7,71.5,29.88,North,0,0.0,0.0,87,0.00,,---,0.00,VWS V14.01,2013-07-13 02:07:00,
2013-07-12 21:12:00,75.5,71.3,29.88,North,0,0.0,0.0,87,0.00,,---,0.00,VWS V14.01,2013-07-13 02:12:00,
2013-07-12 21:17:00,75.3,71.2,29.88,North,0,0.0,0.0,87,0.00,,---,0.00,VWS V14.01,2013-07-13 02:17:00,
2013-07-12 21:22:00,75.3,71.5,29.88,North,0,0.0,0.0,88,0.00,,---,0.00,VWS V14.01,2013-07-13 02:22:00,
2013-07-12 21:27:00,75.1,71.3,29.88,North,0,0.0,0.0,88,0.00,,---,0.00,VWS V14.01,2013-07-13 02:27:00,
2013-07-12 21:32:00,74.9,71.2,29.88,North,0,0.0,0.0,88,0.00,,---,0.00,VWS V14.01,2013-07-13 02:32:00,
2013-07-12 21:37:00,74.8,71.0,29.88,North,0,0.0,0.0,88,0.00,,---,0.00,VWS V14.01,2013-07-13 02:37:00,
2013-07-12 21:42:00,74.6,70.8,29.88,North,0,0.0,0.0,88,0.00,,---,0.00,VWS V14.01,2013-07-13 02:42:00,
2013-07-12 21:47:00,74.6,71.1,29.88,SW,225,0.0,0.0,89,0.00,,---,0.00,VWS V14.01,2013-07-13 02:47:00,
2013-07-12 21:52:00,74.4,70.9,29.88,SW,225,0.0,0.0,89,0.00,,---,0.00,VWS V14.01,2013-07-13 02:52:00,
2013-07-12 21:57:00,74.2,70.8,29.88,SW,225,0.0,0.0,89,0.00,,---,0.00,VWS V14.01,2013-07-13 02:57:00,
2013-07-12 22:02:00,74.2,71.1,29.88,SW,225,0.0,0.0,90,0.00,,---,0.00,VWS V14.01,2013-07-13 03:02:00,
2013-07-12 22:07:00,74.0,70.9,29.88,SW,225,0.0,0.0,90,0.00,,---,0.00,VWS V14.01,2013-07-13 03:07:00,
2013-07-12 22:12:00,73.9,70.8,29.88,West,270,0.0,0.0,90,0.00,,---,0.00,VWS V14.01,2013-07-13 03:12:00,
2013-07-12 22:17:00,73.7,70.6,29.88,WSW,248,0.0,0.0,90,0.00,,---,0.00,VWS V14.01,2013-07-13 03:17:00,
2013-07-12 22:22:00,73.7,70.6,29.88,WSW,248,0.0,0.0,90,0.00,,---,0.00,VWS V14.01,2013-07-13 03:22:00,
2013-07-12 22:28:00,73.5,70.4,29.91,WSW,248,0.0,0.0,90,0.00,,---,0.00,VWS V14.01,2013-07-13 03:28:00,
2013-07-12 22:33:00,73.3,70.2,29.91,WSW,248,0.0,0.0,90,0.00,,---,0.00,VWS V14.01,2013-07-13 03:33:00,
2013-07-12 22:38:00,73.3,70.2,29.91,WSW,248,0.0,0.0,90,0.00,,---,0.00,VWS V14.01,2013-07-13 03:38:00,
2013-07-12 22:43:00,73.1,70.0,29.91,WSW,248,0.0,0.0,90,0.00,,---,0.00,VWS V14.01,2013-07-13 03:43:00,
2013-07-12 22:48:00,73.1,70.0,29.91,WSW,248,0.0,0.0,90,0.00,,---,0.00,VWS V14.01,2013-07-13 03:48:00,
2013-07-12 22:53:00,73.0,70.2,29.91,WSW,248,0.0,0.0,91,0.00,,---,0.00,VWS V14.01,2013-07-13 03:53:00,
2013-07-12 22:58:00,73.0,70.2,29.91,WSW,248,0.0,0.0,91,0.00,,---,0.00,VWS V14.01,2013-07-13 03:58:00,
2013-07-12 23:01:00,72.8,70.0,29.91,WSW,248,0.0,0.0,91,0.00,,---,0.00,VWS V14.01,2013-07-13 04:01:00,
2013-07-12 23:02:00,72.8,70.0,29.91,WSW,248,0.0,0.0,91,0.00,,---,0.00,VWS V14.01,2013-07-13 04:02:00,
2013-07-12 23:07:00,72.6,69.8,29.91,WSW,248,0.0,0.0,91,0.00,,---,0.00,VWS V14.01,2013-07-13 04:07:00,
2013-07-12 23:12:00,72.6,69.8,29.91,WSW,248,0.0,0.0,91,0.00,,---,0.00,VWS V14.01,2013-07-13 04:12:00,
2013-07-12 23:17:00,72.4,69.7,29.91,WSW,248,0.0,0.0,91,0.00,,---,0.00,VWS V14.01,2013-07-13 04:17:00,
2013-07-12 23:22:00,72.2,69.5,29.91,WSW,248,0.0,0.0,91,0.00,,---,0.00,VWS V14.01,2013-07-13 04:22:00,
2013-07-12 23:27:00,72.1,69.3,29.91,WSW,248,0.0,0.0,91,0.00,,---,0.00,VWS V14.01,2013-07-13 04:27:00,
2013-07-12 23:32:00,71.9,69.1,29.91,WNW,292,0.0,0.0,91,0.00,,---,0.00,VWS V14.01,2013-07-13 04:32:00,
2013-07-12 23:37:00,71.7,68.9,29.91,WNW,292,0.0,0.0,91,0.00,,---,0.00,VWS V14.01,2013-07-13 04:37:00,
2013-07-12 23:42:00,71.7,69.3,29.88,WNW,292,0.0,0.0,92,0.00,,---,0.00,VWS V14.01,2013-07-13 04:42:00,
2013-07-12 23:47:00,71.7,69.3,29.88,WNW,292,0.0,0.0,92,0.00,,---,0.00,VWS V14.01,2013-07-13 04:47:00,
2013-07-12 23:52:00,71.5,69.1,29.88,WNW,292,0.0,0.0,92,0.00,,---,0.00,VWS V14.01,2013-07-13 04:52:00,
2013-07-12 23:57:00,71.5,69.1,29.91,WNW,292,0.0,0.0,92,0.00,,---,0.00,VWS V14.01,2013-07-13 04:57:00,